Weather History for EGNH - September, 2013

Change the Weather History Date:

Wednesday, September 11, 2013

  Actual Average Record
Temperature  
Mean Temperature 58 °F -  
Max Temperature 59 °F 59 °F 77 °F (2000)
Min Temperature 56 °F 49 °F 46 °F (1997)
Degree Days  
Heating Degree Days 8    
Growing Degree Days 8 (Base 50)    
Moisture  
Dew Point 54 °F    
Average Humidity 89    
Maximum Humidity 100    
Minimum Humidity 71    
Precipitation  
Precipitation 0.00 in - - ()
Sea Level Pressure  
Sea Level Pressure 30.15 in    
Wind  
Wind Speed 10 mph ()    
Max Wind Speed 14 mph    
Max Gust Speed 17 mph    
Visibility 5.4 miles    
Events Rain    
Averages and records for this station are not official NWS values.
T = Trace of Precipitation, MM = Missing Value Source: Averaged Metar Reports

Daily Weather History Graph

Daily Weather History Graph

Search for Another Location

Airport or City:

Trip Planner

Search our weather history database for the weather conditions in past years. The results will help you decide how hot, cold, wet, or windy it might be!

Date:

Astronomy

Sep. 11, 2013 Rise Set
Actual Time 6:38 AM BST 7:37 PM BST
Civil Twilight 6:02 AM BST 8:13 PM BST
Nautical Twilight 5:19 AM BST 8:56 PM BST
Astronomical Twilight 4:31 AM BST 9:43 PM BST
Moon 1:48 PM BST (9/11) 10:22 PM BST (9/11)
Length of Visible Light 14h 10m
Length of Day
12h 59m
Waxing Crescent, 36% of the Moon is Illuminated
Sep 11
Waxing Crescent
Sep 12
First Quarter
Sep 19
Full
Sep 27
Last Quarter
Oct 5
New

Hourly Weather History & Observations

Time (BST) Temp. Dew Point Humidity Pressure Visibility Wind Dir Wind Speed Gust Speed Precip Events Conditions
12:50 AM 57 °F 52 °F 79%  in - NNW 13.8 mph - -  
5:50 AM 57.2 °F 53.6 °F 88% 30.21 in 6.2 mi NW 11.5 mph - N/A   Scattered Clouds
6:20 AM 57.2 °F 53.6 °F 88% 30.21 in 6.2 mi NW 10.4 mph - N/A   Scattered Clouds
6:50 AM 57 °F 52 °F 77%  in - NW 12.7 mph - -  
6:50 AM 57.2 °F 51.8 °F 82% 30.21 in 6.2 mi NW 11.5 mph - N/A   Scattered Clouds
7:20 AM 59.0 °F 51.8 °F 77% 30.21 in 6.2 mi WNW 9.2 mph - N/A   Mostly Cloudy
7:50 AM 57.2 °F 51.8 °F 82% 30.21 in 6.2 mi WNW 11.5 mph - N/A   Mostly Cloudy
8:20 AM 57.2 °F 51.8 °F 82% 30.21 in 6.2 mi WNW 12.7 mph - N/A   Mostly Cloudy
9:20 AM 57.2 °F 51.8 °F 82% 30.18 in 6.2 mi WNW 13.8 mph - N/A   Mostly Cloudy
9:50 AM 58 °F 51 °F 71%  in - NW 11.5 mph - -  
9:50 AM 57.2 °F 51.8 °F 82% 30.18 in 6.2 mi NW 11.5 mph - N/A   Mostly Cloudy
10:20 AM 57.2 °F 51.8 °F 82% 30.21 in 6.2 mi NW 11.5 mph - N/A Rain Light Rain Showers
10:50 AM 57.2 °F 51.8 °F 82% 30.18 in 6.2 mi West 13.8 mph - N/A Rain Light Rain Showers
11:20 AM 57.2 °F 53.6 °F 88% 30.18 in 6.2 mi West 12.7 mph - N/A Rain Light Rain Showers
12:20 PM 57.2 °F 53.6 °F 88% 30.18 in 6.2 mi West 11.5 mph - N/A   Mostly Cloudy
12:50 PM 56 °F 53 °F 86%  in - West 13.8 mph - -  
12:50 PM 57.2 °F 53.6 °F 88% 30.18 in 6.2 mi West 12.7 mph - N/A   Mostly Cloudy
1:50 PM 57.2 °F 53.6 °F 88% 30.15 in 3.7 mi West 13.8 mph - N/A Rain Rain
2:20 PM 57.2 °F 53.6 °F 88% 30.15 in 3.1 mi West 10.4 mph - N/A Rain Rain
2:50 PM 57.2 °F 55.4 °F 94% 30.15 in 2.8 mi WSW 10.4 mph - N/A Rain Rain
3:20 PM 57.2 °F 55.4 °F 94% 30.15 in 3.1 mi West 11.5 mph - N/A Rain Rain
3:50 PM 57 °F 56 °F 96%  in - West 11.5 mph - -  
3:50 PM 57.2 °F 55.4 °F 94% 30.12 in 2.8 mi West 10.4 mph - N/A Rain Rain
4:20 PM 57.2 °F 57.2 °F 100% 30.12 in 2.5 mi SW 5.8 mph - N/A Rain Light Rain
4:50 PM 57.2 °F 57.2 °F 100% 30.12 in 3.1 mi WSW 9.2 mph - N/A Rain Light Rain
5:20 PM 57.2 °F 57.2 °F 100% 30.12 in 6.2 mi West 6.9 mph - N/A   Scattered Clouds
5:50 PM 59.0 °F 57.2 °F 94% 30.09 in 6.2 mi West 5.8 mph - N/A   Mostly Cloudy
6:20 PM 59.0 °F 57.2 °F 94% 30.09 in 6.2 mi West 6.9 mph - N/A   Light Drizzle
6:50 PM 59.0 °F 57.2 °F 94% 30.09 in 6.2 mi West 5.8 mph - N/A   Mostly Cloudy
7:20 PM 59.0 °F 57.2 °F 94% 30.09 in 6.2 mi WNW 5.8 mph - N/A   Mostly Cloudy
7:50 PM 59.0 °F 57.2 °F 94% 30.09 in 6.2 mi NW 4.6 mph - N/A   Mostly Cloudy
8:20 PM 59.0 °F 57.2 °F 94% 30.09 in 6.2 mi NNW 4.6 mph 17.3 mph N/A   Mostly Cloudy
8:50 PM 59.0 °F 57.2 °F 94% 30.09 in 6.2 mi North 3.5 mph - N/A   Mostly Cloudy
9:50 PM 58 °F 57 °F 96%  in - North 3.5 mph - -